Regional Weather Roundup
Issued by NWS

Home | Current Version | Previous Version | Text Only | Print | Product List | Glossary Off
Versions: 1 2 3 4 5 6 7 8 9 10 11 12 13 14 15 16 17 18 19 20 21 22 23 24 25 26 27 28 29 30 31 32 33 34 35 36 37 38 39 40 41 42 43 44 45 46 47 48 49 50

000
ASUS45 KBOU 021407
RWRCO

WEATHER ROUNDUP FOR COLORADO
NATIONAL WEATHER SERVICE DENVER/BOULDER CO
800 AM MDT WED SEP 02 2015

NOTE: "FAIR" INDICATES FEW OR NO CLOUDS BELOW 12000 FEET WITH NO
SIGNIFICANT WEATHER AND/OR OBSTRUCTIONS TO VISIBILITY.

COZ001>005-013-030-031-021500-
...NORTHWEST COLORADO...

CITY           SKY/WX    TMP DP  RH WIND       PRES   REMARKS
CRAIG          SUNNY     52  45  77 CALM      30.25R
HAYDEN         NOT AVBL
MEEKER         SUNNY     53  45  74 E6        30.27R
MOUNT WERNER   NOT AVBL
STEAMBOAT SPGS SUNNY     47  42  82 CALM      30.30S
WALDEN         SUNNY     48  41  76 SE3       30.36S
$$

COZ006>008-011-021500-
...WEST CENTRAL VALLEYS...

CITY           SKY/WX    TMP DP  RH WIND       PRES   REMARKS
GRAND JUNCTION SUNNY     63  51  65 SE10      30.17R
MONTROSE       SUNNY     57  47  69 S5        30.26R
EAGLE          SUNNY     48  45  87 CALM      30.37R
RIFLE          SUNNY     54  49  83 CALM      30.25R
DELTA          SUNNY     63  49  60 NE8       30.23R HAZE
NUCLA          SUNNY     59  45  58 CALM      30.29R
$$

COZ017>023-064>068-021500-
...SOUTHWEST COLORADO...

CITY           SKY/WX    TMP DP  RH WIND       PRES   REMARKS
DURANGO        SUNNY     53  44  71 CALM      30.31R
CORTEZ         MOSUNNY   60  48  64 MISG      30.25R
PAGOSA SPRINGS SUNNY     55  46  71 CALM      30.39R
TELLURIDE      MOSUNNY   53  45  75 E3        30.48R
WOLF CREEK PAS NOT AVBL
$$

COZ009-010-012-014-032>034-037-058>063-021500-
...CENTRAL COLORADO...

CITY           SKY/WX    TMP DP  RH WIND       PRES   REMARKS
ASPEN          MOSUNNY   49  44  83 CALM      30.37R
BUENA VISTA    NOT AVBL
COPPER MTN     SUNNY     46  32  57 W16G24    30.62S
BERTHOUD PASS  FAIR      39  28  65 NW28G35   30.63R
COTTONWOOD PAS MOSUNNY   54  39  58 NW3       30.49R
GUNNISON       MOSUNNY   46  43  87 CALM      30.45R
KREMMLING      MOSUNNY   45  43  93 CALM      30.40R
LEADVILLE      SUNNY     40  40 100 CALM      30.49R
MONARCH PASS   MOSUNNY   41  36  81 W18       30.73R
SALIDA         MOSUNNY   52  45  76 W3        30.45R
SUNLIGHT       SUNNY     50  41  71 CALM      30.57R
WILKERSON PASS MOSUNNY   46  34  61 W13G20    30.58R
$$

COZ069>075-021500-
...SAN LUIS VALLEY/SANGRE DE CRISTO MOUNTAINS...

CITY           SKY/WX    TMP DP  RH WIND       PRES   REMARKS
ALAMOSA        MOSUNNY   51  45  79 S3        30.37R
LA VETA PASS   MOSUNNY   50  39  66 S13G21    30.51R
SAGUACHE       MOSUNNY   52  43  71 NW7       30.40R
$$

COZ035-036-038>040-021500-
...NORTHERN COLORADO FRONT RANGE...

CITY           SKY/WX    TMP DP  RH WIND       PRES   REMARKS
DENVER INTL AP MOSUNNY   70  45  40 SW8       30.12R
DMNS CITY PARK   N/A     69  46  44 SE7G13    30.12R
AURORA         MOSUNNY   69  45  41 S9        30.15R
FRONT RANGE AP NOT AVBL
ERIE MUNI ARPT SUNNY     64  50  62 CALM      30.10S
BOULDER MUN AP SUNNY     68  45  42 CALM      30.10S
CENTENNIAL     PTSUNNY   70  42  36 SW8       30.16R
BROOMFIELD     MOSUNNY   73  41  31 NW7       30.13R
FORT COLLINS   SUNNY     64  50  59 S5        30.10R
LONGMONT       SUNNY     65  49  56 CALM      30.11S
$$

COZ041-046-047-076>085-087-088-021500-
...PIKES PEAK/PALMER DIVIDE AND SOUTHERN FOOTHILLS...

CITY           SKY/WX    TMP DP  RH WIND       PRES   REMARKS
COLO. SPRINGS  PTSUNNY   66  45  46 CALM      30.19R
A. F. ACADEMY  MOSUNNY   69  40  34 N13G18    30.20S
ELLICOTT       PTSUNNY  N/A N/A N/A CALM      30.17R
FALCON         PTSUNNY   64  40  41 MISG      30.24R
FORT CARSON    PTSUNNY   62  49  63 W1        30.16R
LIMON          MOSUNNY   67  48  50 W9        30.11R
MONUMENT HILL  SUNNY     63  41  45 W6        30.25R
TRINIDAD       SUNNY     69  47  45 SW10      30.18R
$$

COZ042>045-048>051-090-091-021500-
...NORTHEAST COLORADO...

CITY           SKY/WX    TMP DP  RH WIND       PRES   REMARKS
GREELEY ARPT   SUNNY     61  52  72 CALM      30.09R
AKRON          SUNNY     70  49  47 W7        30.05R
BURLINGTON     SUNNY     69  56  62 W8        30.03R
WRAY           CLOUDY    66  54  64 SW7       30.00R
STERLING       NOT AVBL
HOLYOKE        SUNNY     64  54  68 W5        29.99R
FORT MORGAN    SUNNY     64  48  56 W6        30.06
$$

COZ086-089-092>099-021500-
...SOUTHEAST COLORADO...

CITY           SKY/WX    TMP DP  RH WIND       PRES   REMARKS
PUEBLO         PTSUNNY   73  48  41 W12       30.09R
LA JUNTA       MOSUNNY   73  48  41 NW14      30.04F
LAMAR          SUNNY     70  54  56 W9        30.00S
SPRINGFIELD      N/A     76  49  38 W12G18    30.06S
$$




USA.gov is the U.S. government's official web portal to all federal, state and local government web resources and services.